This is the latest recevied weather packets stored in our database for station/object K7KAR-2. If no packets are shown the sender has not sent any weather packets the latest 10 day(s).
| Time | Temp. | Humidity | Pressure | Rain* | Wind** | Luminosity | Snow |
|---|---|---|---|---|---|---|---|
| 1777563621 | 11.11° C | 10% | 1022.5 hPa | 0 mm | - | 754 W/m² | - |
| 1777563321 | 11.11° C | 10% | 1022.3 hPa | 0 mm | - | 728 W/m² | - |
| 1777563017 | 10.56° C | 10% | 1022.3 hPa | 0 mm | - | 504 W/m² | - |
| 1777562713 | 11.11° C | 10% | 1022.2 hPa | 0 mm | - | 713 W/m² | - |
| 1777562412 | 11.11° C | 10% | 1022.3 hPa | 0 mm | - | 709 W/m² | - |
| 1777562109 | 11.11° C | 10% | 1022.2 hPa | 0 mm | - | 698 W/m² | - |
| 1777561806 | 10.56° C | 10% | 1022.2 hPa | 0 mm | - | 668 W/m² | - |
| 1777561503 | 10.56° C | 11% | 1022.1 hPa | 0 mm | - | 554 W/m² | - |
| 1777561197 | 10.56° C | 13% | 1022.5 hPa | 0 mm | - | 616 W/m² | - |
| 1777560891 | 10.56° C | 15% | 1022.2 hPa | 0 mm | - | 521 W/m² | - |
| 1777560590 | 10.56° C | 17% | 1022.2 hPa | 0 mm | - | 502 W/m² | - |
| 1777560287 | 10° C | 22% | 1022.3 hPa | 0 mm | - | 503 W/m² | - |
| 1777559984 | 10° C | 22% | 1022.6 hPa | 0 mm | - | 495 W/m² | - |
| 1777559679 | 9.44° C | 24% | 1022.3 hPa | 0 mm | - | 462 W/m² | - |
| 1777559377 | 8.89° C | 26% | 1022.3 hPa | 0 mm | - | 408 W/m² | - |
| 1777559073 | 8.89° C | 27% | 1022.5 hPa | 0 mm | - | 388 W/m² | - |
| 1777558768 | 8.89° C | 27% | 1022.2 hPa | 0 mm | - | 385 W/m² | - |
| 1777558464 | 8.33° C | 30% | 1022.3 hPa | 0 mm | - | 341 W/m² | - |
| 1777558161 | 7.78° C | 34% | 1022.2 hPa | 0 mm | - | 350 W/m² | - |
| 1777557857 | 6.67° C | 35% | 1022.1 hPa | 0 mm | - | 333 W/m² | - |
| 1777557554 | 6.67° C | 37% | 1021.9 hPa | 0 mm | - | 303 W/m² | - |
| 1777557245 | 5.56° C | 39% | 1022.2 hPa | 0 mm | - | 279 W/m² | - |
| 1777556941 | 5° C | 40% | 1022.1 hPa | 0 mm | - | 268 W/m² | - |
| 1777556635 | 4.44° C | 42% | 1022 hPa | 0 mm | - | 256 W/m² | - |
| 1777556331 | 3.89° C | 45% | 1022 hPa | 0 mm | - | 226 W/m² | - |
* Rain latest hour (hover to see other rain measurements)
** Current wind speed in m/s (hover to see current wind gust speed)